ROMMA est une association bénévole à but non lucratif. Votre soutien est indispensable : ADHERER à ROMMA ou FAIRE un DON

Die - (26, Drôme)

Diois (400 m)   Longitude: 5° 21' 55"E   Latitude: 44° 45' 16"N Station partenaire n°159
 

Détail journalier du     <<     >>

Température Precipitation Humidité Pression Vent Dir Rafale Dir. rafale Ensol.
Heure (°C) (mm) (%) (hPa) (km/h) (km/h) (min)
01:00 13.8087101703SO0
02:00 14.208410171E8N0
03:00 13.708310172NO6SO0
04:00 12.208610162SSE5SSE0
05:00 15.707310162E8SE0
06:00 14.707710152N8NO0
07:00 14.408010152N5ONO0
08:00 14.308010162N5N0
09:00 13.7085101606SO0
10:00 14.3087101606SSO0
11:00 14.70.49010172ESE11NNO0
12:00 15.408610172SSO8ONO0
13:00 16.808210162NO10NO0
14:00 18.806710152SO10SO0
15:00 19.906310142SE10SO0
16:00 19.106510142ESE11S0
17:00 16.808110143ENE10NO0
18:00 16.408310143NO10O30
19:00 14.908810141ONO6ONO0
20:00 13.9092101403ONO0
21:00 13.109210141N5ONO0
22:00 12.309410141ESE5ESE0
23:00 12.4095101405SSE0
minuit 13.109410132NO5SSE0

Graphique du 18-10-2019

 

Serveur OMMA